Flag for Mexico Weather past 2 weeks in Merida, Yucatán, Mexico

Now
73 °F

Passing clouds.


Feels Like: 72 °F
Forecast: 71 / 86 °F
Wind: 5 mph from Northeast

Location: Aerop. Internacional Merida - Yuc

Current Time: Dec 20, 2014 at 2:22:25 AM

Latest Report: Dec 20, 2014 at 1:52 AM


Visibility: 7 mi

Pressure: 29.94 "Hg

Humidity: 89%

Dew point: 70 °F

Location of MeridaLocation

Historic Weather in Merida — Graph

°F

Merida temperature yesterday

Maximum temperature yesterday: 88 °F (at 1:47 PM)
Minimum temperature yesterday: 68 °F (at 12:45 AM)
Average temperature yesterday: 76 °F

Past Weeks' High & Low Weather Summary

 TemperatureHumidityPressure
High91 °F (Dec 5, 12:46 AM)100% (Dec 7, 1:50 AM)30.24 "Hg (Dec 7, 1:50 AM)
Low55 °F (Dec 11, 4:45 AM)35% (Dec 15, 2:44 PM)29.58 "Hg (Dec 6, 5:45 AM)
Average72 °F73%30.09 "Hg
* Reported Dec 5 12:46 AM — Dec 20 12:52 AM, Merida, Weather by CustomWeather, © 2014

Note: Actual official high and low records may vary slightly from our data, if they occured in-between our weather recording intervals... More about our weather records

Advertising

Merida weather history for previous 24 hours

 ConditionsComfort  
Time TempWeatherWind HumidityBarometerVisibility
12:52 AM
Dec 20
73 °FPassing clouds.6 mph89%29.95 "Hg7 mi
11:55 PM
Dec 19
73 °FPassing clouds.No wind89%29.97 "Hg7 mi
10:46 PM72 °FClear.No wind88%29.96 "Hg7 mi
9:47 PM75 °FClear.No wind83%29.97 "Hg7 mi
8:45 PM75 °FClear.3 mph78%29.96 "Hg7 mi
7:43 PM79 °FPassing clouds.7 mph74%29.96 "Hg7 mi
4:46 PM82 °FPartly sunny.6 mph62%29.90 "Hg7 mi
3:44 PM84 °FPartly sunny.8 mph55%29.89 "Hg7 mi
2:46 PM86 °FPartly sunny.13 mph52%29.88 "Hg7 mi
1:47 PM88 °FPartly sunny.8 mph52%29.90 "Hg7 mi
12:45 PM86 °FPartly sunny.12 mph52%29.93 "Hg7 mi
10:45 AM82 °FBroken clouds.15 mph62%30.01 "Hg7 mi
9:43 AM81 °FPartly sunny.12 mph66%30.03 "Hg7 mi
8:46 AM75 °FScattered clouds.10 mph74%30.02 "Hg7 mi
7:46 AM72 °FPassing clouds.12 mph78%30.02 "Hg7 mi
6:44 AM68 °FSunny.5 mph88%30.00 "Hg7 mi
5:48 AM68 °FClear.9 mph88%29.97 "Hg7 mi
4:45 AM68 °FClear.7 mph88%29.97 "Hg7 mi
2:48 AM68 °FClear.8 mph88%29.99 "Hg7 mi
Weather by CustomWeather, © 2014

See weather overviewHow to use our weather pages